Lafayette, LA

2:42 PM CST on February 11, 2016 (GMT -0600)
Lafayette Regional

Weather History for KLFT - April, 2014

Change the Weather History Date:

Monday, April 7, 2014

  Actual Average Record
Temperature  
Mean Temperature 63 °F 67 °F  
Max Temperature 71 °F 77 °F 92 °F (1910)
Min Temperature 55 °F 56 °F 35 °F (1971)
Degree Days  
Heating Degree Days 2 2  
Month to date heating degree days 4 17  
Since 1 July heating degree days 1899 1397  
Cooling Degree Days 0 4  
Month to date cooling degree days 28 26  
Year to date cooling degree days 66 121  
Growing Degree Days 14 (Base 50)    
Moisture  
Dew Point 57 °F    
Average Humidity 77    
Maximum Humidity 100    
Minimum Humidity 53    
Precipitation  
Precipitation 0.00 in 0.12 in 5.83 in (1942)
Month to date precipitation 0.95 0.81  
Year to date precipitation 11.05 14.72  
Snow  
Snow 0.00 in 0.00 in T in (2007)
Month to date snowfall 0.0 0.0  
Since 1 July snowfall 0.8 T  
Snow Depth 0.00 in    
Sea Level Pressure  
Sea Level Pressure 29.78 in    
Wind  
Wind Speed 9 mph (NW)    
Max Wind Speed 16 mph    
Max Gust Speed 20 mph    
Visibility 10 miles    
Events Rain , Thunderstorm    
T = Trace of Precipitation, MM = Missing Value Source: NWS Daily Summary

Daily Weather History Graph

Daily Weather History Graph

Search for Another Location

Airport or City:

Trip Planner

Search our weather history database for the weather conditions in past years. The results will help you decide how hot, cold, wet, or windy it might be!

Date:

Astronomy

Apr. 07, 2014 Rise Set
Actual Time 6:50 AM CDT 7:30 PM CDT
Civil Twilight 6:25 AM CDT 7:54 PM CDT
Nautical Twilight 5:57 AM CDT 8:23 PM CDT
Astronomical Twilight 5:28 AM CDT 8:52 PM CDT
Moon 12:57 PM CDT (4/7) 1:56 AM CDT (4/7)
Length of Visible Light 13h 29m
Length of Day
12h 40m
First Quarter, 53% of the Moon is Illuminated
Apr 7
First Quarter
Apr 15
Full
Apr 22
Last Quarter
Apr 29
New
May 6
First Quarter

Hourly Weather History & Observations

Time (CDT) Temp. Dew Point Humidity Pressure Visibility Wind Dir Wind Speed Gust Speed Precip Events Conditions
12:13 AM 70.0 °F 69.1 °F 97% 29.68 in 3.0 mi WSW 13.8 mph - 0.24 in Rain , Thunderstorm Thunderstorms and Rain
12:30 AM 69.1 °F 66.9 °F 93% 29.67 in 6.0 mi NW 13.8 mph - 0.27 in Rain Light Rain
12:43 AM 64.9 °F 64.0 °F 97% 29.66 in 7.0 mi WNW 12.7 mph - 0.29 in Rain Rain
12:53 AM 64.9 °F 64.0 °F 97% 29.66 in 9.0 mi NW 9.2 mph - 0.29 in Rain Light Rain
1:14 AM 64.9 °F 64.0 °F 97% 29.67 in 7.0 mi Calm Calm - 0.00 in   Overcast
1:38 AM 64.9 °F 63.0 °F 93% 29.67 in 10.0 mi West 5.8 mph - 0.00 in   Overcast
1:53 AM 64.0 °F 63.0 °F 96% 29.67 in 10.0 mi SW 5.8 mph - 0.00 in   Overcast
2:04 AM 64.0 °F 63.0 °F 96% 29.67 in 10.0 mi West 5.8 mph - N/A   Overcast
2:17 AM 64.0 °F 63.0 °F 96% 29.67 in 10.0 mi West 8.1 mph - N/A   Overcast
2:45 AM 63.0 °F 61.0 °F 93% 29.67 in 10.0 mi WNW 10.4 mph - N/A Thunderstorm Mostly Cloudy
2:53 AM 63.0 °F 61.0 °F 93% 29.67 in 10.0 mi WNW 6.9 mph - N/A Thunderstorm Overcast
3:00 AM 62.1 °F 61.0 °F 96% 29.66 in 10.0 mi South 3.5 mph - N/A   Overcast
3:53 AM 60.1 °F 59.0 °F 96% 29.70 in 10.0 mi WNW 10.4 mph - N/A   Overcast
4:53 AM 57.9 °F 57.0 °F 97% 29.75 in 10.0 mi WNW 6.9 mph - N/A   Overcast
5:53 AM 57.0 °F 55.0 °F 93% 29.77 in 10.0 mi NW 11.5 mph - N/A   Overcast
6:53 AM 57.0 °F 54.0 °F 89% 29.80 in 10.0 mi NNW 4.6 mph - N/A   Overcast
7:06 AM 57.0 °F 54.0 °F 89% 29.79 in 10.0 mi NNW 5.8 mph - N/A   Overcast
7:53 AM 57.0 °F 54.0 °F 89% 29.81 in 10.0 mi NNW 4.6 mph - N/A   Overcast
8:53 AM 57.0 °F 53.1 °F 87% 29.83 in 10.0 mi NW 9.2 mph - N/A   Overcast
9:00 AM 57.0 °F 53.1 °F 87% 29.83 in 10.0 mi NNW 10.4 mph - N/A   Overcast
9:53 AM 57.9 °F 53.1 °F 84% 29.83 in 10.0 mi NW 15.0 mph - N/A   Overcast
10:01 AM 57.0 °F 53.1 °F 87% 29.84 in 10.0 mi NW 15.0 mph - N/A   Overcast
10:53 AM 59.0 °F 53.1 °F 81% 29.83 in 10.0 mi NW 12.7 mph - N/A   Overcast
11:53 AM 60.1 °F 52.0 °F 75% 29.83 in 10.0 mi NW 10.4 mph - N/A   Mostly Cloudy
12:08 PM 61.0 °F 52.0 °F 72% 29.83 in 10.0 mi NNW 6.9 mph - N/A   Scattered Clouds
12:53 PM 64.0 °F 54.0 °F 70% 29.83 in 10.0 mi NW 8.1 mph - N/A   Clear
1:53 PM 66.9 °F 54.0 °F 63% 29.81 in 10.0 mi NW 9.2 mph - N/A   Clear
2:53 PM 69.8 °F 53.6 °F 56% 29.81 in 10.0 mi NNW 12.7 mph - N/A   Clear
3:53 PM 68.0 °F 54.0 °F 61% 29.80 in 10.0 mi NW 10.4 mph - N/A   Clear
4:53 PM 69.1 °F 54.0 °F 58% 29.80 in 10.0 mi NNW 9.2 mph - N/A   Clear
5:53 PM 70.0 °F 53.1 °F 55% 29.80 in 10.0 mi NNW 11.5 mph - N/A   Clear
6:53 PM 69.1 °F 52.0 °F 54% 29.83 in 10.0 mi NNW 11.5 mph - N/A   Clear
7:53 PM 64.0 °F 54.0 °F 70% 29.87 in 10.0 mi North 10.4 mph - N/A   Clear
8:53 PM 61.0 °F 52.0 °F 72% 29.90 in 10.0 mi North 10.4 mph - N/A   Clear
9:53 PM 59.0 °F 52.0 °F 78% 29.95 in 10.0 mi NNE 9.2 mph - N/A   Partly Cloudy
10:53 PM 57.0 °F 50.0 °F 77% 29.95 in 10.0 mi NE 6.9 mph - N/A   Clear
11:53 PM 55.9 °F 48.9 °F 77% 29.95 in 10.0 mi NE 3.5 mph - N/A   Clear